Starlink 32502

operational
NORAD ID: 62116 Int'l Des: 2024-222 Owner: SPXS Country: US Constellation: starlink
LEOCIRCULAR

About Starlink 32502

Description loading...

Live Position

Loading 3D Globe...

Upcoming Passes

Altitude History

Altitude vs Time

uPlot chart will show altitude changes over time

Two-Line Element Set

1 62116U 24222C 25349.77234881 .00037610 00000-0 13675-2 0 9992
2 62116 43.0003 250.2145 0001540 261.3606 98.7072 15.27623217 59970
Epoch: Dec 15, 2025 • Age: 22 hours

Current Status

Altitude 483.1 km
Velocity 7.63 km/s
Sub-Earth Point -4.61°S, 92.59°W
Launch Date Nov 27, 2024
Age 1 years
Type internet

Technical Details

Classification Payload
Mass 730.00 kg
Dry Mass 700.00 kg
Total Mass 730.00 kg
Length 0.30 m
Diameter 4.10 m
Span 29.00 m
Shape Box + pan
Manufacturer SPXS
Bus Type Starlink V2M
Phase Status In Orbit
Owner/State SPXS/US

Large Constellations

Loading constellations...